Flag for Canada Weather past 2 weeks in Iqaluit, Nunavut, Canada

Now
16 °F

Passing clouds.


Feels Like: 16 °F
Forecast: 8 / 31 °F
Wind: No wind

Location: Iqaluit

Current Time: Apr 27, 2015 at 2:03:11 AM

Latest Report: Apr 27, 2015 at 1:00 AM


Visibility: 15 mi

Pressure: 30.43 "Hg

Humidity: 79%

Dew point: 10 °F

Location of IqaluitLocation

Historic Weather in Iqaluit — Graph

°F

Iqaluit temperature yesterday

Maximum temperature yesterday: 21 °F (at 3:00 PM)
Minimum temperature yesterday: 5 °F (at 3:00 AM)
Average temperature yesterday: 15 °F

Past Weeks' High & Low Weather Summary

 TemperatureHumidityPressure
High28 °F (Apr 23, 4:00 AM)93% (Apr 13, 5:00 AM)30.53 "Hg (Apr 13, 5:00 AM)
Low-20 °F (Apr 15, 5:00 AM)53% (Apr 20, 3:00 PM)29.02 "Hg (Apr 13, 11:52 AM)
Average8 °F71%30.00 "Hg
* Reported Apr 12 1:00 AM — Apr 27 1:00 AM, Iqaluit, Weather by CustomWeather, © 2015

Note: Actual official high and low records may vary slightly from our data, if they occured in-between our weather recording intervals... More about our weather records

Advertising

Iqaluit weather history for previous 24 hours

 ConditionsComfort  
Time TempWeatherWind HumidityBarometerVisibility
1:00 AM
Mon, Apr 27
16 °FPassing clouds.No wind79%30.43 "Hg15 mi
12:00 AM14 °FPassing clouds.No wind79%30.44 "Hg15 mi
11:00 PM
Sun, Apr 26
16 °FPartly cloudy.No wind73%30.45 "Hg15 mi
10:00 PM14 °FPartly cloudy.3 mph79%30.47 "Hg15 mi
9:00 PM16 °FPassing clouds.No wind73%30.47 "Hg25 mi
8:00 PM16 °FPassing clouds.No wind73%30.47 "Hg30 mi
7:00 PM18 °FPassing clouds.3 mph73%30.48 "Hg30 mi
6:00 PM19 °FPassing clouds.2 mph68%30.49 "Hg30 mi
5:00 PM19 °FPassing clouds.No wind68%30.50 "Hg30 mi
4:00 PM21 °FPassing clouds.6 mph58%30.51 "Hg30 mi
3:00 PM21 °FPassing clouds.5 mph63%30.51 "Hg30 mi
2:00 PM19 °FPassing clouds.3 mph58%30.52 "Hg30 mi
1:00 PM19 °FPassing clouds.2 mph63%30.52 "Hg30 mi
12:00 PM18 °FPassing clouds.3 mph68%30.52 "Hg30 mi
11:00 AM18 °FPassing clouds.3 mph68%30.52 "Hg30 mi
10:00 AM16 °FPassing clouds.3 mph67%30.52 "Hg30 mi
9:00 AM14 °FPassing clouds.2 mph67%30.51 "Hg30 mi
8:00 AM14 °FPassing clouds.No wind67%30.51 "Hg30 mi
7:00 AM10 °FScattered clouds.No wind79%30.51 "Hg30 mi
6:00 AM12 °FPartly sunny.No wind73%30.50 "Hg30 mi
5:00 AM9 °FPassing clouds.2 mph72%30.50 "Hg30 mi
4:00 AM12 °FPassing clouds.2 mph73%30.49 "Hg30 mi
3:00 AM5 °FPassing clouds.3 mph78%30.49 "Hg15 mi
2:00 AM9 °FPassing clouds.3 mph78%30.48 "Hg15 mi
Weather by CustomWeather, © 2015

See weather overviewHow to use our weather pages